KB4SYV Weather Reports


Display with metric or nautical units.
time (UTC)temp
F
wind
direction
speed
MPH
gust
MPH
rain 1hr
in
rain 24hr
in
rain mn
in
humidity
%
barometer
mb
20260504110503 42 313 0.0 0.0 0.00 0.00 0.00 96 1041.6
20260504100523 43 313 0.0 0.0 0.00 0.00 0.00 96 1041.3
20260504082003 44 313 0.0 0.0 0.00 0.00 0.00 95 1040.8
20260504081503 44 313 0.0 0.0 0.00 0.00 0.00 94 1040.7
20260504081003 44 313 0.0 0.0 0.00 0.00 0.00 94 1040.8
20260504080502 44 313 0.0 0.0 0.00 0.00 0.00 94 1040.8
20260504050502 48 313 0.0 0.0 0.00 0.00 0.00 86 1041.4
20260504050003 48 313 0.0 0.0 0.00 0.00 0.00 86 1041.3
20260504045502 48 313 0.0 0.0 0.00 0.00 0.00 86 1041.4
20260504045003 49 313 0.0 0.0 0.00 0.00 0.00 86 1041.4
20260504044524 49 313 0.0 0.0 0.00 0.00 0.00 85 1041.4
20260504044003 49 313 0.0 0.0 0.00 0.00 0.00 84 1041.4
20260504043503 49 313 0.0 0.0 0.00 0.00 0.00 84 1041.3
20260504043002 49 313 0.0 0.0 0.00 0.00 0.00 83 1041.3
20260504042503 50 313 0.0 0.0 0.00 0.00 0.00 83 1041.3
20260504042045 50 313 0.0 0.0 0.00 0.00 0.00 83 1041.3
20260504041523 50 313 0.0 0.0 0.00 0.00 0.00 82 1041.3
20260504041024 50 313 0.0 0.0 0.00 0.00 0.00 81 1041.2
20260504040503 51 313 0.0 0.0 0.00 0.00 0.00 80 1041.2
20260504040002 51 313 0.0 0.0 0.00 0.00 0.00 80 1041.2
20260504035503 51 313 0.0 0.0 0.00 0.00 0.00 80 1041.3
20260504035002 51 313 0.0 0.0 0.00 0.00 0.00 79 1041.2
20260504034503 52 313 0.0 0.0 0.00 0.00 0.00 78 1041.2
20260504034003 52 313 0.0 0.0 0.00 0.00 0.00 79 1041.1
20260504033503 52 313 0.0 0.0 0.00 0.00 0.00 78 1041.1
20260504033002 52 313 0.0 0.0 0.00 0.00 0.00 78 1041.2
20260504032503 53 313 0.0 0.0 0.00 0.00 0.00 77 1041.1
20260504032002 53 313 0.0 0.0 0.00 0.00 0.00 77 1041.0
20260504031503 53 313 0.0 0.0 0.00 0.00 0.00 76 1041.1
20260504031002 54 313 0.0 0.0 0.00 0.00 0.00 76 1041.1
20260504030524 54 313 0.0 0.0 0.00 0.00 0.00 76 1041.2
20260504030024 54 313 0.0 1.0 0.00 0.00 0.00 75 1041.1
20260504025502 55 313 0.0 1.0 0.00 0.00 0.00 72 1041.1
20260504025003 55 333 0.0 2.0 0.00 0.00 0.00 73 1040.9
20260504024502 55 299 0.0 2.0 0.00 0.00 0.00 72 1040.9
20260504024004 55 304 0.0 1.0 0.00 0.00 0.00 71 1040.9
20260504023502 55 354 0.0 2.0 0.00 0.00 0.00 71 1040.8
20260504023024 55 6 0.0 6.0 0.00 0.00 0.00 71 1040.7
20260504022503 54 335 1.0 6.0 0.00 0.00 0.00 71 1040.8
20260504022002 53 339 2.0 6.0 0.00 0.00 0.00 74 1040.6
20260504021503 53 347 0.0 3.0 0.00 0.00 0.00 77 1040.5
20260504021002 52 336 0.0 0.0 0.00 0.00 0.00 79 1040.3
20260504020503 52 336 0.0 0.0 0.00 0.00 0.00 80 1040.1
20260504020002 52 336 0.0 0.0 0.00 0.00 0.00 79 1040.2
20260504015524 52 336 0.0 0.0 0.00 0.00 0.00 79 1040.1
20260504015024 52 336 0.0 0.0 0.00 0.00 0.00 80 1040.0
20260504014502 53 336 0.0 0.0 0.00 0.00 0.00 79 1040.0
20260504014004 53 336 0.0 0.0 0.00 0.00 0.00 79 1040.0
20260504013502 53 336 0.0 0.0 0.00 0.00 0.00 79 1039.8
20260504013003 53 336 0.0 0.0 0.00 0.00 0.00 78 1039.7
20260504012502 53 336 0.0 0.0 0.00 0.00 0.00 79 1039.6
20260504012024 54 336 0.0 0.0 0.00 0.00 0.00 78 1039.7
20260504011502 55 336 0.0 0.0 0.00 0.00 0.00 77 1038.2
20260504011003 54 336 0.0 0.0 0.00 0.00 0.00 76 1039.6
20260504010503 54 336 0.0 0.0 0.00 0.00 0.00 76 1039.4
20260504010002 55 336 0.0 0.0 0.00 0.00 0.00 76 1039.2
20260504005503 55 336 0.0 0.0 0.00 0.00 0.00 75 1039.3
20260504005002 55 336 0.0 0.0 0.00 0.00 0.00 74 1039.2
20260504004503 56 336 0.0 0.0 0.00 0.00 0.00 73 1039.1
20260504004002 56 336 0.0 0.0 0.00 0.00 0.00 72 1038.9
20260504003546 57 336 0.0 0.0 0.00 0.00 0.00 71 1039.1
20260504003003 57 336 0.0 0.0 0.00 0.00 0.00 70 1038.0
20260504002502 57 336 0.0 0.0 0.00 0.00 0.00 68 1039.1
20260504002003 58 336 0.0 0.0 0.00 0.00 0.00 67 1039.1
20260504001502 59 336 0.0 0.0 0.00 0.00 0.00 64 1037.9
20260504001003 59 336 0.0 0.0 0.00 0.00 0.00 64 1038.0
20260504000502 60 336 0.0 0.0 0.00 0.00 0.00 63 1039.0
20260504000003 60 336 0.0 0.0 0.00 0.00 0.00 61 1039.0
20260503235503 61 336 0.0 0.0 0.00 0.00 0.00 59 1039.0
20260503235025 62 336 0.0 0.0 0.00 0.00 0.00 58 1038.9
20260503234503 63 336 0.0 0.0 0.00 0.00 0.00 57 1037.7
20260503234003 64 336 0.0 0.0 0.00 0.00 0.00 55 1037.9
20260503233503 64 336 0.0 0.0 0.00 0.00 0.00 54 1037.8
20260503233023 64 336 0.0 2.0 0.00 0.00 0.00 51 1039.0
20260503232503 65 336 0.0 4.0 0.00 0.00 0.00 48 1038.9
20260503232023 65 26 0.0 4.0 0.00 0.00 0.00 48 1039.0
20260503231503 65 290 1.0 4.0 0.00 0.00 0.00 46 1039.0
20260503231003 66 344 1.0 4.0 0.00 0.00 0.00 43 1039.1
20260503230503 66 43 0.0 3.0 0.00 0.00 0.00 44 1038.6
20260503230003 66 43 0.0 8.0 0.00 0.00 0.00 42 1039.2
20260503225503 66 39 1.0 8.0 0.00 0.00 0.00 43 1038.2
20260503225024 66 308 3.0 7.0 0.00 0.00 0.00 40 1039.2
20260503224524 67 341 1.0 7.0 0.00 0.00 0.00 40 1038.1
20260503224003 66 30 1.0 4.0 0.00 0.00 0.00 40 1039.3
20260503223503 66 39 0.0 3.0 0.00 0.00 0.00 42 1039.4
20260503223003 67 50 1.0 8.0 0.00 0.00 0.00 42 1039.6
20260503222503 66 78 2.0 8.0 0.00 0.00 0.00 44 1039.6
20260503222003 66 24 3.0 7.0 0.00 0.00 0.00 40 1039.6
20260503221503 66 2 3.0 11.0 0.00 0.00 0.00 40 1039.7
20260503221002 67 316 7.0 11.0 0.00 0.00 0.00 37 1039.7
20260503220503 68 323 3.0 7.0 0.00 0.00 0.00 37 1039.8
20260503220002 68 301 1.0 6.0 0.00 0.00 0.00 39 1039.7
20260503215503 68 333 0.0 5.0 0.00 0.00 0.00 41 1039.7
20260503215023 68 26 1.0 9.0 0.00 0.00 0.00 41 1039.7
20260503214503 67 348 1.0 9.0 0.00 0.00 0.00 42 1039.7
20260503214002 67 329 4.0 8.0 0.00 0.00 0.00 40 1039.6
20260503213525 67 47 0.0 4.0 0.00 0.00 0.00 42 1039.7
20260503213003 67 74 1.0 10.0 0.00 0.00 0.00 40 1039.8
20260503212503 67 7 1.0 10.0 0.00 0.00 0.00 39 1039.9
20260503212003 67 340 3.0 10.0 0.00 0.00 0.00 40 1039.9
20260503211503 67 18 0.0 10.0 0.00 0.00 0.00 41 1039.9
20260503211024 67 358 1.0 10.0 0.00 0.00 0.00 39 1039.9
20260503210524 67 286 2.0 11.0 0.00 0.00 0.00 40 1040.0
20260503210003 67 349 4.0 11.0 0.00 0.00 0.00 41 1040.1
20260503205503 67 312 4.0 11.0 0.00 0.00 0.00 41 1040.2
20260503205003 67 305 2.0 11.0 0.00 0.00 0.00 40 1040.3
20260503204503 67 343 4.0 14.0 0.00 0.00 0.00 40 1040.5
20260503204002 67 345 3.0 14.0 0.00 0.00 0.00 41 1040.5
20260503203524 68 11 2.0 6.0 0.00 0.00 0.00 43 1040.7
20260503203003 67 15 2.0 7.0 0.00 0.00 0.00 45 1040.9
20260503202502 67 302 2.0 8.0 0.00 0.00 0.00 43 1041.0
20260503202003 68 328 4.0 8.0 0.00 0.00 0.00 42 1041.2
20260503201503 68 354 1.0 11.0 0.00 0.00 0.00 44 1041.3
20260503151002 58 53 3.0 9.0 0.00 0.00 0.00 60 1044.7
20260503150503 58 309 4.0 9.0 0.00 0.00 0.00 61 1044.7
20260503131003 55 59 3.0 6.0 0.00 0.00 0.00 67 1044.3
20260503130502 55 120 0.0 3.0 0.00 0.00 0.00 71 1044.3